Flag for Italy Weather past 2 weeks in Naples, Italy

Now
55 °F

Partly sunny.


Feels Like: 54 °F
Forecast: 47 / 54 °F
Wind: 7 mph from South

Location: Naples / Capodichino

Current Time: Mar 5, 2015 at 1:40:42 PM

Latest Report: Mar 5, 2015 at 12:50 PM


Visibility: N/A

Pressure: 29.68 "Hg

Humidity: 55%

Dew point: 39 °F

Location of NaplesLocation

Historic Weather in Naples — Graph

°F

Naples temperature yesterday

Maximum temperature yesterday: 61 °F (at 9:20 AM)
Minimum temperature yesterday: 52 °F (at 3:20 AM)
Average temperature yesterday: 56 °F

Past Weeks' High & Low Weather Summary

 TemperatureHumidityPressure
High63 °F (Mar 3, 11:50 AM)100% (Feb 22, 7:50 AM)30.48 "Hg (Feb 22, 7:50 AM)
Low36 °F (Feb 20, 4:20 AM)29% (Feb 19, 3:20 PM)29.36 "Hg (Feb 22, 12:20 PM)
Average52 °F78%29.91 "Hg
* Reported Feb 18 11:50 AM — Mar 5 11:50 AM, Naples, Weather by CustomWeather, © 2015

Note: Actual official high and low records may vary slightly from our data, if they occured in-between our weather recording intervals... More about our weather records

Advertising

Naples weather history for previous 24 hours

 ConditionsComfort  
Time TempWeatherWind HumidityBarometerVisibility
11:50 AM
Thu, Mar 5
55 °FBroken clouds.7 mph59%29.71 "HgN/A
11:20 AM55 °FPartly sunny.9 mph59%29.71 "HgN/A
10:50 AM52 °FBroken clouds.7 mph82%29.71 "HgN/A
10:20 AM52 °FLight rain. Broken clouds.10 mph82%29.71 "Hg4 mi
9:50 AM52 °FRain. Fog.5 mph88%29.68 "Hg3 mi
9:20 AM50 °FLight rain. Broken clouds.6 mph94%29.68 "Hg4 mi
8:50 AM50 °FLight rain. Fog.9 mph88%29.68 "Hg3 mi
8:20 AM52 °FLight rain. Broken clouds.8 mph88%29.68 "Hg5 mi
7:50 AM52 °FBroken clouds.12 mph94%29.65 "Hg5 mi
7:20 AM54 °FLight rain. Broken clouds.7 mph88%29.65 "Hg5 mi
6:50 AM54 °FLight rain. Broken clouds.10 mph88%29.65 "Hg5 mi
6:20 AM55 °FPartly cloudy.12 mph88%29.62 "HgN/A
5:50 AM57 °FPartly cloudy.10 mph94%29.62 "HgN/A
5:20 AM57 °FPartly cloudy.13 mph94%29.62 "HgN/A
4:50 AM57 °FRain showers. Partly cloudy.12 mph94%29.65 "Hg2 mi
4:20 AM52 °FLight rain. Partly cloudy.5 mph100%29.65 "Hg4 mi
3:50 AM52 °FLight rain. Partly cloudy.5 mph100%29.68 "Hg4 mi
2:50 AM54 °FLight rain. Partly cloudy.7 mph94%29.71 "Hg4 mi
2:20 AM54 °FLight rain. Partly cloudy.5 mph94%29.74 "Hg4 mi
1:50 AM54 °FPartly cloudy.5 mph94%29.77 "HgN/A
1:20 AM54 °FPartly cloudy.3 mph94%29.77 "HgN/A
12:50 AM54 °FPartly cloudy.3 mph94%29.77 "HgN/A
12:20 AM54 °FLight rain. Partly cloudy.5 mph94%29.80 "Hg4 mi
11:50 PM
Wed, Mar 4
54 °FRain. Partly cloudy.5 mph94%29.83 "Hg4 mi
10:50 PM54 °FPartly cloudy.5 mph94%29.92 "Hg4 mi
10:20 PM54 °FRain. Partly cloudy.3 mph100%29.92 "Hg4 mi
9:50 PM54 °FRain. Partly cloudy.5 mph100%29.95 "Hg4 mi
9:20 PM54 °FRain. Partly cloudy.5 mph100%29.95 "Hg4 mi
8:50 PM54 °FRain. Partly cloudy.6 mph100%29.98 "Hg4 mi
8:20 PM55 °FRain. Partly cloudy.3 mph94%30.01 "Hg4 mi
7:50 PM55 °FRain. Partly cloudy.8 mph94%30.04 "Hg4 mi
7:20 PM55 °FLight rain. Partly cloudy.5 mph94%30.04 "Hg4 mi
5:20 PM55 °FLight rain. Broken clouds.9 mph94%30.07 "Hg3 mi
4:50 PM55 °FLight rain. Broken clouds.9 mph94%30.07 "Hg4 mi
4:20 PM57 °FLight rain. Broken clouds.8 mph88%30.07 "HgN/A
3:50 PM57 °FLight rain. Partly sunny.12 mph82%30.09 "HgN/A
3:20 PM59 °FPartly sunny.8 mph72%30.09 "HgN/A
2:50 PM59 °FPartly sunny.8 mph72%30.09 "HgN/A
2:20 PM59 °FPartly sunny.8 mph68%30.12 "HgN/A
1:50 PM59 °FPassing clouds.8 mph72%30.12 "HgN/A
1:20 PM61 °FPassing clouds.9 mph68%30.15 "HgN/A
Weather by CustomWeather, © 2015

See weather overviewHow to use our weather pages